AirNav   Air Wisconsin Airman Trainee
 
 478 users online  

0AL1 Resort Airport
Foley, Alabama, USA

GOING TO FOLEY?


FAA INFORMATION EFFECTIVE 28 MARCH 2019

Location

FAA Identifier: 0AL1
Lat/Long: 30-26-38.0000N / 087-39-25.0000W
30-26.633333N / 087-39.416667W
30.4438889 / -87.6569444
(estimated)
Elevation: 97 ft. / 30 m (estimated)
Variation: 01E (1990)
From city: 4 miles NE of FOLEY, AL
Time zone: UTC -5 (UTC -6 during Standard Time)
Zip code: 36535

Airport Operations

Airport use: Private use. Permission required prior to landing
Activation date: 03/1993
Control tower: no
ARTCC: JACKSONVILLE CENTER
FSS: ANNISTON FLIGHT SERVICE STATION
Attendance: UNATNDD
Segmented circle: no

Airport Communications

WX AWOS-3PT at JKA (9 nm S): 134.525 (251-968-7581)
WX AWOS-3PT at CQF (11 nm W): 118.425 (251-928-3242)

Nearby radio navigation aids

VOR radial/distance  VOR name  Freq  Var
NUNr263/(16.7)SAUFLEY VOR108.8001E
BFMr112/23.0BROOKLEY VORTAC112.8004E

 
NDB name  Hdg/Dist  Freq  Var  ID
PICKENS273/24.832602WPKZ .--. -.- --..
WISLE121/38.424801WMOB -- --- -...

Airport Services

Runway Information

Runway 17/35

Dimensions: 2640 x 70 ft. / 805 x 21 m
Surface: turf
RUNWAY 17  RUNWAY 35
Traffic pattern: leftleft
Obstructions: none30 ft. pline, 500 ft. from runway

Airport Ownership and Management from official FAA records

Ownership: Privately-owned
Owner: JACK D. TEAGUE
15120 TEAGUE LN
FOLEY, AL 36536
Phone (251) 978-3828
Manager: JACK D. TEAGUE
15120 TEAGUE LN
FOLEY, AL 36536
Phone (251) 978-3828

Airport Operational Statistics

Aircraft based on the field: 4
Single engine airplanes: 4
    

Instrument Procedures

There are no published instrument procedures at 0AL1.

Some nearby airports with instrument procedures:

5R4 - Foley Municipal Airport (2 nm SW)
KJKA - Jack Edwards National Airport (9 nm S)
KCQF - H L Sonny Callahan Airport (11 nm W)
KNPA - Pensacola Naval Air Station/Forrest Sherman Field (18 nm E)
KBFM - Mobile Downtown Airport (24 nm NW)
 
Loc | Ops | Rwys | IFR | FBO | Links
Com | Nav | Svcs | Stats | Notes

Continental Motors
AirBoss

 
Area around 0AL1 (Resort Airport)
 
Road maps at: MapQuest Bing Google
 
Aerial photo
No photo
 
Sectional chart

 
Airport distance calculator
Flying to Resort Airport? Find the distance to fly.

From to 0AL1

Sunrise and sunset
Times for 23-Apr-2019
 Local
(UTC-5)
 Zulu
(UTC)
Morning civil twilight05:5110:51
Sunrise06:1611:16
Sunset19:2200:22
Evening civil twilight19:4700:47

Current date and time
Zulu (UTC)  23-Apr-2019 10:14:57
Local (UTC-5)  23-Apr-2019 05:14:57
 
METAR
KJKA 
9nm S 
230955Z AUTO 00000KT 3SM BR CLR 10/10 A3011 RMK AO2 T00980098
KCQF 
11nm W 
230955Z AUTO 00000KT 10SM CLR 09/09 A3012 RMK AO2
KNPA 
18nm E 
230956Z AUTO 01003KT 10SM CLR 11/10 A3010 RMK AO2 SLP194 T01060100 $
TAF
KNPA 
18nm E 
2307/2407 VRB04KT 9999 SCT180 QNH3007INS BECMG 2320/2322 17009KT 9999 FEW20 QNH3010INS BECMG 2403/2405 VRB05KT 9999 FEW180 BKN250 QNH3001INS AUTOMATED SENSOR METWATCH 2307 TIL 2311 T10/2309Z T24/2323Z COR0735 FN00210
NOTAMs
Click for the latest NOTAMs
NOTAMs are issued by the DoD/FAA and will open in a separate window not controlled by AirNav.

 

 
 

Would you like to see your business listed on this page?

 If your business provides an interesting product or service to pilots, flight crews, aircraft, or users of the Resort Airport, you should consider listing it here.  To start the listing process, click on the button below
 
Add a business
 

Other Pages about Resort Airport

Update a link
 
Copyright © AirNav, LLC. All rights reserved. Privacy Policy  Contact